Regional Weather Roundup
Issued by NWS Upton, NY

Current Version | Previous Version | Text Only | Print | Product List | Glossary On
Versions: 1 2 3 4 5 6 7 8 9 10 11 12 13 14 15 16 17 18 19 20 21 22 23 24 25 26 27 28 29 30 31 32 33 34 35 36 37 38 39 40 41 42 43 44 45 46 47 48 49 50
000
ASUS41 KOKX 301905
RWROKX

REGIONAL WEATHER ROUNDUP
NATIONAL WEATHER SERVICE NEW YORK NY
300 PM EDT TUE SEP 30 2014

NOTE: "FAIR" INDICATES FEW OR NO CLOUDS BELOW 12,000 FEET WITH NO
SIGNIFICANT WEATHER AND/OR OBSTRUCTIONS TO VISIBILITY.

NYZ071-072-176-178-NJZ106-104-302000-
NEW YORK CITY METRO AREA


CITY           SKY/WX    TMP DP  RH WIND       PRES   REMARKS
CENTRAL PARK   CLOUDY    67  58  72 E7        29.97F
LAGUARDIA APRT CLOUDY    66  59  78 E10       29.94F
KENNEDY INTL   CLOUDY    66  61  84 E8        29.95F
NEWARK/LIBERTY PTSUNNY   68  59  73 E6        29.94S
BRNX BOT. GARD   N/A     64  59  82 SE2       29.95F
TETERBORO      CLOUDY    68  59  73 E9        29.93F
$$

NYZ177-179-078>081-302000-
LONG ISLAND NEW YORK

CITY           SKY/WX    TMP DP  RH WIND       PRES   REMARKS
FARMINGDALE    CLOUDY    66  60  81 NE7       29.96S
ISLIP          CLOUDY    65  58  78 NE8       29.95S
SHIRLEY        LGT RAIN  64  60  87 CALM      29.96F
WESTHAMPTON    CLOUDY    63  60  90 NE5       29.97F
MONTAUK POINT    N/A     62  59  90 N8        29.97F
$$

NYZ052-065-067-302000-
HUDSON VALLEY

CITY           SKY/WX    TMP DP  RH WIND       PRES   REMARKS
WHITE PLAINS   PTSUNNY   65  58  78 E7        29.96F
NEWBURGH       NOT AVBL
MONTGOMERY     LGT RAIN  68  60  75 S7        29.92S
POUGHKEEPSIE   SUNNY     72  58  61 SE9       29.93S
ALBANY         PTSUNNY   74  57  55 S7        29.93F
$$

NJZ001-105-106-008-010-013-015-019>022-104-302000-
NEW JERSEY

CITY           SKY/WX    TMP DP  RH WIND       PRES   REMARKS
NEWARK/LIBERTY PTSUNNY   68  59  73 E6        29.94S
TETERBORO      CLOUDY    68  59  73 E9        29.93F
CALDWELL       MOSUNNY   69  57  65 SE12      29.94F
MORRISTOWN     CLOUDY    72  61  68 E9        29.94S
SOMERVILLE     SUNNY     76  58  53 SE7       29.90S
LINDEN         CLOUDY    72  63  72 SE8       29.95F
SUSSEX         MOSUNNY   74  56  53 SE12G18   29.91S
ANDOVER          N/A     73  56  54 MISG      29.92S
TRENTON        MOSUNNY   75  52  44 SE9       29.90F
MILLVILLE      SUNNY     75  57  53 VRB3      29.89F
ATLANTIC CITY  SUNNY     73  58  59 E12       29.90F
WRIGHTSTOWN    PTSUNNY   74  58  57 E13       29.89F
TOMS RIVER     CLOUDY    70  59  68 E5        29.93S
BELMAR         PTSUNNY   66  57  72 E10G17    29.94S
$$

PAZ047>061-062-071-302000-
EASTERN PENNSYLVANIA

CITY           SKY/WX    TMP DP  RH WIND       PRES   REMARKS
PHILADELPHIA   MOSUNNY   78  55  44 S6        29.89F
ALLENTOWN      MOSUNNY   79  53  40 E7        29.90F
SCRANTON       LGT RAIN  73  54  51 CALM      29.90S
$$

CTZ002-004>006-009-010-012-RIZ004-006-007-MAZ004-011-015-302000-
SOUTHERN NEW ENGLAND
 IN CT

CITY           SKY/WX    TMP DP  RH WIND       PRES   REMARKS
BRADLEY INTL   LGT RAIN  63  55  75 NE7       29.98S
HARTFORD       CLOUDY    62  56  80 SE6       29.98S
DANBURY        CLOUDY    62  57  83 E7        29.98F
WTRBRY/OXFORD  LGT RAIN  57  54  88 NE5       30.00F FOG
BRIDGEPORT     CLOUDY    63  59  87 N6        29.98R
MERIDEN        CLOUDY    62  57  83 N6        29.99S
NEW HAVEN      CLOUDY    65  57  75 NE7       29.98S
CHESTER        CLOUDY    61  57  88 E6        29.98F
GROTON         CLOUDY    61  59  93 N10       29.96F
WILLIMANTIC    LGT RAIN  61  57  87 E7        29.99S

 IN RI

CITY           SKY/WX    TMP DP  RH WIND       PRES   REMARKS
PROVIDENCE     CLOUDY    59  56  89 N12       29.99S
BLOCK ISLAND   CLOUDY    61  55  82 NE8       29.97S
WESTERLY       CLOUDY    61  58  90 NE7       29.98S

 IN MA

CITY           SKY/WX    TMP DP  RH WIND       PRES   REMARKS
BOSTON         RAIN      57  55  93 N13       30.00F
WORCESTER      RAIN      54  54 100 E5        30.01S FOG
WESTFIELD      CLOUDY    62  56  80 N5        29.99S
PROVINCETOWN   CLOUDY    59  55  88 N14G20    29.98F
NANTUCKET      LGT RAIN  62  60  93 N21       29.92F
$$

ANZ330-335-338-340-345-350-353-355-302000-
COASTAL MARINE OBSERVATIONS


STATION/POSITION TIME  SKY/WX   TEMP    WIND        PRES    VSBY  WAVE
                                AIR SEA DIR/SP/G                  HT/PER
                 (UTC)          (F)     (DEG/KT/KT) (MB)    (MI)  (FT/S)
NY HARB ENTRANCE 1900            65 69   70/ 16/ 17 1013.9          3/ 5
4S FIRE IS       1900               68                N/A           3/ 5
20S FIRE ISLAND  1900            64 67   60/ 17/ 19 1013.2          3/ 5
23SW MTP         1900                                 N/A           4/ 5
HUDSON CANYON    1900            67 69   90/  8/ 10 1012.3          2/ 4
EXECUTION ROCKS  1900            66 69   60/ 14/ 17   N/A
WESTERN LI SOUND 1900            65      70/ 12/ 16   N/A           2/ 3
CENTRAL LI SOUND 1800            61 69   70/  8/ 10   N/A           1/ 2
EASTERN LI SOUND 1800            62 67   40/ 10/ 14   N/A
ROBBINS REEF     1900            66     100/  9/ 12 1012.6
$$


>>>>>>>>>>>>>>>>>>>>>>>>>>>> KEY <<<<<<<<<<<<<<<<<<<<<<<<<<<
>                                                          <
>     SKY/WX - SKY CONDITION/PRESENT WEATHER               <
>     TMP    - TEMPERATURE IN FAHRENHEIT                   <
>     DP     - DEWPOINT IN FAHRENHEIT                      <
>     RH     - RELATIVE HUMIDITY IN PERCENT                <
>     WIND   - DIRECTION AND SPEED IN MPH                  <
>     PRES   - MEAN SEA LEVEL PRESSURE IN INCHES OF HG     <
>     WCI    - WIND CHILL INDEX                            <
>     VSB    - VISIBILITY IN MILES                         <
>     HX     - HEAT INDEX                                  <
>     TC     - TEMPERATURE IN CELSIUS                      <
>     VRB    - VARIABLE WIND DIRECTION                     <
>                                                          <
>>>>>>>>>>>>>>>>>>>>>>>>>>>> KEY <<<<<<<<<<<<<<<<<<<<<<<<<<<





USA.gov is the U.S. government's official web portal to all federal, state and local government web resources and services.